FW2584 Weather Reports


Display with metric or nautical units.
time (UTC)temp
F
wind
direction
speed
MPH
gust
MPH
rain 1hr
in
rain 24hr
in
rain mn
in
humidity
%
barometer
mb
20260904215524 93 0 0.0 1.0 0.00 0.00 0.00 61 1012.9
20260904215024 94 0 0.0 0.0 0.00 0.00 0.00 62 1013.0
20260904214541 94 0 0.0 0.0 0.00 0.00 0.00 60 1012.9
20260904214024 95 0 0.0 1.0 0.00 0.00 0.00 62 1013.0
20260904213529 95 0 0.0 1.0 0.00 0.00 0.00 61 1012.9
20260904213044 95 0 0.0 1.0 0.00 0.00 0.00 61 1012.9
20260904212527 95 0 0.0 1.0 0.00 0.00 0.00 61 1013.1
20260904212024 96 0 0.0 1.0 0.00 0.00 0.00 61 1013.0
20260904211543 96 0 0.0 1.0 0.00 0.00 0.00 63 1012.9
20260904211026 96 0 0.0 1.0 0.00 0.00 0.00 61 1013.1
20260904210525 96 0 0.0 1.0 0.00 0.00 0.00 61 1013.2
20260904210056 96 0 0.0 1.0 0.00 0.00 0.00 62 1013.3
20260904205528 96 0 0.0 3.0 0.00 0.00 0.00 61 1013.4
20260904205025 96 0 0.0 3.0 0.00 0.00 0.00 60 1013.4
20260904204540 96 0 0.0 1.0 0.00 0.00 0.00 60 1013.5
20260904204029 96 0 0.0 2.0 0.00 0.00 0.00 62 1013.6
20260904203525 96 0 0.0 2.0 0.00 0.00 0.00 60 1013.7
20260904203041 96 0 0.0 1.0 0.00 0.00 0.00 60 1013.8
20260904202524 96 0 0.0 1.0 0.00 0.00 0.00 63 1013.9
20260904202026 96 0 0.0 1.0 0.00 0.00 0.00 62 1013.8
20260904201543 96 0 0.0 1.0 0.00 0.00 0.00 61 1013.9
20260904201023 96 0 0.0 1.0 0.00 0.00 0.00 62 1014.0
20260904200524 96 0 0.0 1.0 0.00 0.00 0.00 61 1014.0
20260904200049 96 0 0.0 1.0 0.00 0.00 0.00 59 1014.2
20260904195524 97 0 0.0 1.0 0.00 0.00 0.00 59 1014.3
20260904195024 97 0 0.0 1.0 0.00 0.00 0.00 60 1014.3
20260904194546 97 0 0.0 3.0 0.00 0.00 0.00 59 1014.4
20260904194025 96 0 0.0 3.0 0.00 0.00 0.00 60 1014.6
20260904193525 97 0 0.0 1.0 0.00 0.00 0.00 64 1014.8
20260904193052 96 0 0.0 1.0 0.00 0.00 0.00 61 1014.8
20260904192524 96 0 0.0 1.0 0.00 0.00 0.00 60 1014.9
20260904192024 96 0 0.0 3.0 0.00 0.00 0.00 61 1014.8
20260904191551 96 0 0.0 3.0 0.00 0.00 0.00 62 1014.9
20260904191023 95 0 0.0 3.0 0.00 0.00 0.00 61 1015.0
20260904190524 95 303 0.0 1.0 0.00 0.00 0.00 64 1015.1
20260904190043 94 0 0.0 1.0 0.00 0.00 0.00 63 1015.1
20260904185526 93 0 0.0 8.0 0.00 0.00 0.00 68 1015.3
20260904185025 93 0 2.0 8.0 0.00 0.00 0.00 64 1015.4
20260904184540 94 305 0.0 6.0 0.00 0.00 0.00 64 1015.4
20260904184025 95 0 1.0 6.0 0.00 0.00 0.00 63 1015.4
20260904183525 95 0 0.0 1.0 0.00 0.00 0.00 65 1015.5
20260904183039 95 0 0.0 1.0 0.00 0.00 0.00 64 1015.5
20260904182523 95 0 0.0 1.0 0.00 0.00 0.00 66 1015.6
20260904182027 94 0 0.0 1.0 0.00 0.00 0.00 64 1015.6
20260904181542 94 0 0.0 1.0 0.00 0.00 0.00 65 1015.5
20260904181024 93 0 0.0 1.0 0.00 0.00 0.00 65 1015.5
20260904180525 94 0 0.0 4.0 0.00 0.00 0.00 66 1015.6
20260904180042 94 0 0.0 4.0 0.00 0.00 0.00 67 1015.7
20260904175530 94 0 0.0 1.0 0.00 0.00 0.00 67 1015.8
20260904175025 94 0 0.0 1.0 0.00 0.00 0.00 65 1015.7
20260904174541 94 0 0.0 3.0 0.00 0.00 0.00 69 1015.7
20260904174023 94 0 0.0 3.0 0.00 0.00 0.00 68 1015.8
20260904173523 94 0 0.0 1.0 0.00 0.00 0.00 67 1015.8
20260904173052 93 0 0.0 1.0 0.00 0.00 0.00 68 1016.0
20260904172527 93 0 0.0 1.0 0.00 0.00 0.00 66 1016.1
20260904172023 93 0 0.0 7.0 0.00 0.00 0.00 67 1016.2
20260904171541 93 0 1.0 7.0 0.00 0.00 0.00 69 1016.1
20260904171022 93 0 0.0 6.0 0.00 0.00 0.00 70 1016.1
20260904170525 92 0 1.0 7.0 0.00 0.00 0.00 69 1016.2
20260904170046 93 237 1.0 7.0 0.00 0.00 0.00 69 1016.2
20260904165525 93 0 0.0 5.0 0.00 0.00 0.00 68 1016.3
20260904165026 93 0 0.0 5.0 0.00 0.00 0.00 68 1016.3
20260904164540 92 0 0.0 1.0 0.00 0.00 0.00 70 1016.4
20260904164023 92 195 0.0 1.0 0.00 0.00 0.00 69 1016.6
20260904163522 92 0 0.0 1.0 0.00 0.00 0.00 70 1016.7
20260904163050 91 0 0.0 2.0 0.00 0.00 0.00 72 1016.7
20260904162528 91 0 0.0 2.0 0.00 0.00 0.00 73 1016.7
20260904162025 91 0 0.0 1.0 0.00 0.00 0.00 71 1016.7
20260904161548 91 0 0.0 1.0 0.00 0.00 0.00 71 1016.8
20260904161025 91 0 0.0 3.0 0.00 0.00 0.00 73 1017.0
20260904160527 90 0 0.0 3.0 0.00 0.00 0.00 72 1017.2
20260904160052 90 239 0.0 3.0 0.00 0.00 0.00 76 1017.2
20260904155525 90 0 1.0 3.0 0.00 0.00 0.00 73 1017.2
20260904155023 90 0 0.0 1.0 0.00 0.00 0.00 73 1017.2
20260904154542 89 0 0.0 1.0 0.00 0.00 0.00 77 1017.4
20260904154026 89 0 0.0 1.0 0.00 0.00 0.00 76 1017.3
20260904153523 88 0 0.0 4.0 0.00 0.00 0.00 77 1017.3
20260904153318 88 0 1.0 4.0 0.00 0.00 0.00 78 1017.3
20260904142524 84 304 1.0 7.0 0.00 0.00 0.00 87 1017.3
20260904142024 83 0 0.0 4.0 0.00 0.00 0.00 89 1017.3
20260904141545 83 0 1.0 5.0 0.00 0.00 0.00 90 1017.3
20260904141024 82 0 0.0 5.0 0.00 0.00 0.00 91 1017.3
20260904140524 82 0 0.0 1.0 0.00 0.00 0.00 93 1017.4
20260904140042 81 0 0.0 1.0 0.00 0.00 0.00 93 1017.5
20260904135525 81 0 0.0 1.0 0.00 0.00 0.00 93 1017.4
20260904135024 81 0 0.0 3.0 0.00 0.00 0.00 94 1017.3
20260904134541 81 0 0.0 3.0 0.00 0.00 0.00 95 1017.2
20260904134027 81 0 0.0 3.0 0.00 0.00 0.00 95 1017.3
20260904133523 80 188 0.0 3.0 0.00 0.00 0.00 96 1017.3
20260904133054 80 0 0.0 3.0 0.00 0.00 0.00 97 1017.3
20260904132524 80 191 0.0 3.0 0.00 0.00 0.00 98 1017.3
20260904132024 79 0 0.0 1.0 0.00 0.00 0.00 99 1017.3
20260904131538 79 0 0.0 0.0 0.00 0.00 0.00 99 1017.3
20260904131024 79 0 0.0 0.0 0.00 0.00 0.00 99 1017.4
20260904130523 78 0 0.0 0.0 0.00 0.00 0.00 99 1017.3
20260904130042 78 0 0.0 0.0 0.00 0.00 0.00 99 1017.4
20260904125524 78 0 0.0 0.0 0.00 0.00 0.00 100 1017.4
20260904125024 77 0 0.0 0.0 0.00 0.00 0.00 100 1017.5
20260904124543 77 0 0.0 0.0 0.00 0.00 0.00 100 1017.6
20260904124023 77 0 0.0 0.0 0.00 0.00 0.00 100 1017.6
20260904123528 76 0 0.0 0.0 0.00 0.00 0.00 100 1017.6
20260904123041 76 0 0.0 0.0 0.00 0.00 0.00 100 1017.5
20260904122527 75 0 0.0 0.0 0.00 0.00 0.00 100 1017.6
20260904122024 75 0 0.0 0.0 0.00 0.00 0.00 99 1017.6
20260904121540 75 0 0.0 0.0 0.00 0.00 0.00 100 1017.6
20260904121027 74 0 0.0 0.0 0.00 0.00 0.00 99 1017.4
20260904120524 74 0 0.0 0.0 0.00 0.00 0.00 99 1017.5
20260904120043 74 0 0.0 0.0 0.00 0.00 0.00 99 1017.4
20260904115524 74 0 0.0 0.0 0.00 0.00 0.00 99 1017.4
20260904115026 73 0 0.0 0.0 0.00 0.00 0.00 99 1017.3
20260904114543 73 0 0.0 0.0 0.00 0.00 0.00 99 1017.2
20260904114021 73 0 0.0 0.0 0.00 0.00 0.00 99 1017.1
20260904113525 73 0 0.0 0.0 0.00 0.00 0.00 99 1017.1
20260904113043 73 0 0.0 0.0 0.00 0.00 0.00 99 1017.2
20260904112524 73 0 0.0 0.0 0.00 0.00 0.00 99 1017.1
20260904112023 73 0 0.0 0.0 0.00 0.00 0.00 99 1017.1
20260904111542 73 0 0.0 0.0 0.00 0.00 0.00 99 1017.0
20260904111024 73 0 0.0 0.0 0.00 0.00 0.00 99 1017.0
20260904110525 73 0 0.0 0.0 0.00 0.00 0.00 99 1017.0
20260904110043 73 0 0.0 0.0 0.00 0.00 0.00 99 1017.0
20260904105523 73 0 0.0 0.0 0.00 0.00 0.00 99 1016.8
20260904105024 73 0 0.0 0.0 0.00 0.00 0.00 99 1016.8
20260904104544 73 0 0.0 0.0 0.00 0.00 0.00 99 1016.7
20260904104021 73 0 0.0 0.0 0.00 0.00 0.00 99 1016.7
20260904103523 73 0 0.0 0.0 0.00 0.00 0.00 99 1016.7
20260904103042 73 0 0.0 0.0 0.00 0.00 0.00 99 1016.6
20260904102524 73 0 0.0 0.0 0.00 0.00 0.00 99 1016.4
20260904102024 73 0 0.0 0.0 0.00 0.00 0.00 99 1016.5
20260904101542 73 0 0.0 0.0 0.00 0.00 0.00 99 1016.5
20260904101024 74 0 0.0 0.0 0.00 0.00 0.00 99 1016.5
20260904100524 74 0 0.0 0.0 0.00 0.00 0.00 99 1016.4
20260904100042 74 0 0.0 0.0 0.00 0.00 0.00 99 1016.5
20260904095524 74 0 0.0 0.0 0.00 0.00 0.00 99 1016.4
20260904095024 74 0 0.0 0.0 0.00 0.00 0.00 99 1016.4
20260904094544 74 0 0.0 0.0 0.00 0.00 0.00 99 1016.3
20260904094025 74 0 0.0 0.0 0.00 0.00 0.00 99 1016.1
20260904093523 74 0 0.0 0.0 0.00 0.00 0.00 98 1016.1
20260904093043 74 0 0.0 0.0 0.00 0.00 0.00 98 1016.1
20260904092524 74 0 0.0 0.0 0.00 0.00 0.00 98 1016.2
20260904092025 74 0 0.0 0.0 0.00 0.00 0.00 98 1016.1
20260904091549 74 0 0.0 0.0 0.00 0.00 0.00 98 1016.0
20260904091023 74 0 0.0 0.0 0.00 0.00 0.00 98 1016.0
20260904090524 74 0 0.0 0.0 0.00 0.00 0.00 98 1015.9
20260904090042 74 0 0.0 0.0 0.00 0.00 0.00 98 1016.0
20260904085525 74 0 0.0 0.0 0.00 0.00 0.00 98 1016.0
20260904085027 74 0 0.0 0.0 0.00 0.00 0.00 98 1015.9
20260904084543 74 0 0.0 0.0 0.00 0.00 0.00 98 1015.9
20260904084024 74 0 0.0 0.0 0.00 0.00 0.00 98 1016.0
20260904083524 74 0 0.0 0.0 0.00 0.00 0.00 98 1016.0
20260904083047 74 0 0.0 0.0 0.00 0.00 0.00 98 1016.1
20260904082523 74 0 0.0 0.0 0.00 0.00 0.00 98 1016.0
20260904082023 75 0 0.0 0.0 0.00 0.00 0.00 98 1015.9
20260904081544 75 0 0.0 0.0 0.00 0.00 0.00 98 1016.1
20260904081024 75 0 0.0 0.0 0.00 0.00 0.00 98 1016.0
20260904080525 75 0 0.0 0.0 0.00 0.00 0.00 98 1015.9
20260904080043 75 0 0.0 0.0 0.00 0.00 0.00 98 1016.0
20260904075525 75 0 0.0 0.0 0.00 0.00 0.00 98 1015.9
20260904075029 75 0 0.0 0.0 0.00 0.00 0.00 98 1015.9
20260904074558 75 0 0.0 0.0 0.00 0.00 0.00 98 1016.0
20260904074028 75 0 0.0 0.0 0.00 0.00 0.00 98 1016.0
20260904073525 75 0 0.0 0.0 0.00 0.00 0.00 98 1016.0
20260904073038 75 0 0.0 0.0 0.00 0.00 0.00 98 1015.9
20260904072524 75 0 0.0 0.0 0.00 0.00 0.00 98 1016.0
20260904072024 75 0 0.0 0.0 0.00 0.00 0.00 98 1016.1
20260904071625 76 0 0.0 0.0 0.00 0.00 0.00 98 1016.1
20260904071027 76 0 0.0 0.0 0.00 0.00 0.00 98 1016.2
20260904070521 76 0 0.0 0.0 0.00 0.00 0.00 98 1016.1
20260904070045 76 0 0.0 0.0 0.00 0.00 0.00 97 1016.1
20260904065524 76 0 0.0 0.0 0.00 0.00 0.00 97 1016.3
20260904065023 76 0 0.0 0.0 0.00 0.00 0.00 98 1016.2
20260904064601 76 0 0.0 0.0 0.00 0.00 0.00 97 1016.3
20260904064025 76 0 0.0 0.0 0.00 0.00 0.00 97 1016.4
20260904063524 76 0 0.0 0.0 0.00 0.00 0.00 97 1016.5
20260904063050 76 0 0.0 0.0 0.00 0.00 0.00 97 1016.5
20260904062525 76 0 0.0 0.0 0.00 0.00 0.00 97 1016.6
20260904062026 76 0 0.0 0.0 0.00 0.00 0.00 97 1016.7
20260904061542 76 0 0.0 0.0 0.00 0.00 0.00 97 1016.7
20260904061024 77 0 0.0 0.0 0.00 0.00 0.00 97 1016.7
20260904060524 77 0 0.0 0.0 0.00 0.00 0.00 97 1016.6
20260904060044 77 0 0.0 0.0 0.00 0.00 0.00 97 1016.7
20260904055526 77 0 0.0 0.0 0.00 0.00 0.00 97 1016.7
20260904055024 77 0 0.0 0.0 0.00 0.00 0.00 96 1016.9
20260904054542 77 0 0.0 0.0 0.00 0.00 0.00 96 1016.9
20260904054024 77 0 0.0 0.0 0.00 0.00 0.00 96 1017.0
20260904053525 77 0 0.0 0.0 0.00 0.00 0.00 96 1017.0
20260904053049 77 0 0.0 0.0 0.00 0.00 0.00 96 1017.1
20260904052521 77 0 0.0 0.0 0.00 0.00 0.00 96 1017.0
20260904052023 77 0 0.0 0.0 0.00 0.00 0.00 96 1017.1
20260904051542 77 0 0.0 0.0 0.00 0.00 0.00 95 1017.0
20260904051021 77 0 0.0 0.0 0.00 0.00 0.00 95 1017.0
20260904050525 78 0 0.0 0.0 0.00 0.00 0.00 95 1017.0
20260904050049 78 0 0.0 0.0 0.00 0.00 0.00 95 1017.0
20260904045524 78 0 0.0 0.0 0.00 0.00 0.00 95 1017.1
20260904045024 78 0 0.0 0.0 0.00 0.00 0.00 95 1017.2
20260904044542 78 0 0.0 0.0 0.00 0.00 0.00 95 1017.1
20260904044024 78 0 0.0 0.0 0.00 0.00 0.00 95 1017.1
20260904043523 78 0 0.0 0.0 0.00 0.00 0.00 95 1017.0
20260904043046 78 0 0.0 0.0 0.00 0.00 0.00 94 1017.2
20260904042524 78 0 0.0 0.0 0.00 0.00 0.00 94 1017.1
20260904042027 78 0 0.0 0.0 0.00 0.00 0.00 94 1017.2
20260904041542 78 0 0.0 0.0 0.00 0.00 0.00 94 1017.1
20260904041021 78 0 0.0 0.0 0.00 0.00 0.00 94 1017.2
20260904040526 78 0 0.0 0.0 0.00 0.00 0.00 93 1017.2
20260904040046 78 0 0.0 0.0 0.00 0.00 0.00 93 1017.2
20260904035526 78 0 0.0 0.0 0.00 0.00 0.00 93 1017.2
20260904035027 78 0 0.0 0.0 0.00 0.00 0.00 92 1017.2
20260904034540 79 0 0.0 0.0 0.00 0.00 0.00 92 1017.3
20260904034025 79 0 0.0 0.0 0.00 0.00 0.00 92 1017.3
20260904033525 79 0 0.0 0.0 0.00 0.00 0.00 92 1017.3
20260904033049 79 0 0.0 0.0 0.00 0.00 0.00 91 1017.3
20260904032847 79 0 0.0 0.0 0.00 0.00 0.00 91 1017.3
20260904032025 79 0 0.0 0.0 0.00 0.00 0.00 91 1017.3
20260904031557 79 0 0.0 0.0 0.00 0.00 0.00 91 1017.4
20260904031026 79 0 0.0 0.0 0.00 0.00 0.00 90 1017.2
20260904030524 79 0 0.0 0.0 0.00 0.00 0.00 90 1017.3
20260904030044 80 0 0.0 0.0 0.00 0.00 0.00 90 1017.3
20260904025524 80 0 0.0 0.0 0.00 0.00 0.00 89 1017.4
20260904025021 80 0 0.0 0.0 0.00 0.00 0.00 89 1017.4
20260904024919 80 0 0.0 0.0 0.00 0.00 0.00 89 1017.4
20260904024023 80 0 0.0 0.0 0.00 0.00 0.00 89 1017.5
20260904023523 80 0 0.0 0.0 0.00 0.00 0.00 88 1017.4
20260904023042 80 0 0.0 0.0 0.00 0.00 0.00 88 1017.4
20260904022524 80 0 0.0 0.0 0.00 0.00 0.00 88 1017.4
20260904022023 80 0 0.0 0.0 0.00 0.00 0.00 87 1017.4
20260904021548 80 0 0.0 0.0 0.00 0.00 0.00 87 1017.4
20260904021027 80 0 0.0 0.0 0.00 0.00 0.00 87 1017.4
20260904020524 80 0 0.0 0.0 0.00 0.00 0.00 87 1017.3
20260904020045 80 0 0.0 0.0 0.00 0.00 0.00 86 1017.3
20260904015524 81 0 0.0 0.0 0.00 0.00 0.00 85 1017.1
20260904015028 81 0 0.0 0.0 0.00 0.00 0.00 85 1017.1
20260904014544 81 0 0.0 0.0 0.00 0.00 0.00 84 1017.1
20260904014023 81 0 0.0 0.0 0.00 0.00 0.00 84 1017.0
20260904013528 81 0 0.0 0.0 0.00 0.00 0.00 84 1016.9
20260904013042 81 0 0.0 0.0 0.00 0.00 0.00 83 1016.9
20260904012526 82 0 0.0 0.0 0.00 0.00 0.00 83 1016.7
20260904012025 82 0 0.0 0.0 0.00 0.00 0.00 82 1016.5
20260904011543 82 0 0.0 0.0 0.00 0.00 0.00 82 1016.5
20260904011024 82 0 0.0 0.0 0.00 0.00 0.00 81 1016.5
20260904010527 83 0 0.0 0.0 0.00 0.00 0.00 81 1016.5
20260904010039 83 0 0.0 0.0 0.00 0.00 0.00 80 1016.4
20260904005524 83 0 0.0 0.0 0.00 0.00 0.00 80 1016.3
20260904005022 83 0 0.0 0.0 0.00 0.00 0.00 80 1016.3
20260904004543 83 0 0.0 0.0 0.00 0.00 0.00 80 1016.2
20260904004024 84 0 0.0 0.0 0.00 0.00 0.00 80 1016.1
20260904003523 84 0 0.0 0.0 0.00 0.00 0.00 79 1016.0
20260904003043 84 0 0.0 0.0 0.00 0.00 0.00 79 1015.9
20260904002529 84 0 0.0 0.0 0.00 0.00 0.00 79 1015.8
20260904002024 84 0 0.0 0.0 0.00 0.00 0.00 78 1015.7
20260904001543 85 0 0.0 0.0 0.00 0.00 0.00 78 1015.6
20260904001024 85 0 0.0 0.0 0.00 0.00 0.00 78 1015.4
20260904000523 85 0 0.0 0.0 0.00 0.00 0.00 79 1015.4
20260904000047 86 0 0.0 0.0 0.00 0.00 0.00 76 1015.4
20260903235527 86 0 0.0 0.0 0.00 0.00 0.00 76 1015.4
20260903235021 87 0 0.0 0.0 0.00 0.00 0.00 75 1015.2
20260903234545 87 0 0.0 0.0 0.00 0.00 0.00 74 1015.3
20260903234023 88 0 0.0 0.0 0.00 0.00 0.00 74 1015.2
20260903233525 88 0 0.0 0.0 0.00 0.00 0.00 74 1015.1
20260903233046 89 0 0.0 1.0 0.00 0.00 0.00 72 1015.1
20260903232525 89 0 0.0 1.0 0.00 0.00 0.00 71 1015.2
20260903232025 89 0 0.0 1.0 0.00 0.00 0.00 71 1015.2
20260903231545 89 0 0.0 1.0 0.00 0.00 0.00 70 1015.2
20260903231023 90 0 0.0 0.0 0.00 0.00 0.00 71 1015.2
20260903230521 90 0 0.0 3.0 0.00 0.00 0.00 70 1015.2
20260903230047 90 0 0.0 3.0 0.00 0.00 0.00 70 1015.2
20260903225524 91 0 0.0 4.0 0.00 0.00 0.00 70 1015.2
20260903225024 91 0 0.0 4.0 0.00 0.00 0.00 70 1015.1
20260903224545 91 0 0.0 4.0 0.00 0.00 0.00 69 1015.1
20260903224029 92 185 0.0 1.0 0.00 0.00 0.00 68 1015.1
20260903223526 92 0 0.0 1.0 0.00 0.00 0.00 68 1015.2
20260903223047 92 0 0.0 1.0 0.00 0.00 0.00 66 1015.2
20260903222524 93 0 0.0 1.0 0.00 0.00 0.00 66 1015.1
20260903222023 93 0 0.0 1.0 0.00 0.00 0.00 65 1015.2
20260903221549 93 0 0.0 0.0 0.00 0.00 0.00 65 1015.3
20260903221030 93 0 0.0 0.0 0.00 0.00 0.00 65 1015.3
20260903220523 93 0 0.0 1.0 0.00 0.00 0.00 65 1015.3
20260903220042 93 0 0.0 1.0 0.00 0.00 0.00 64 1015.3